KFXEKEYW

Guest
Details From KFXE - Fort Lauderdale Executive
To KEYW - Key West Intl
Flight Number -
Tags generated
Created
Modified
Stats Distance 131 nm / 243 km
Max Altitude 9,600 ft / 2,926 m
Waypoints 3
Social Downloads 0
Likes 0
Share VATSIM

Download

Looking for another format? Having issues loading an existing format? Contact us
Advertisement - Login to hide

Notes

Basic altitude profile: - Ascent Rate: 2500ft/min - Ascent Speed: 250kts - Cruise Altitude: 35000ft - Cruise Speed: 420kts - Descent Rate: 1500ft/min - Descent Speed: 250kts

Route

KFXE OHOFO KEYW

ID Type Via Altitude Latitude Longitude Leg Dist Tot Dist Heading (true) Name
O KFXE APT - 0 ft / 0 m 26.19698˚ -80.17044˚ - 0 nm - Fort Lauderdale Executive
OHOFO FIX - 9,600 ft / 2,926 m 25.85810˚ -80.50062˚ 27 nm 27 nm 221° / 221° -
O KEYW APT - 0 ft / 0 m 24.55612˚ -81.75955˚ 103 nm 130 nm 221° / 221° Key West Intl

Altitude Profile

Advertisement - Login to hide

KFXE

Details ICAO KFXE (FXE)
Name Fort Lauderdale Executive
Region United States
Timezone America/New_York (UTC-4.0)
Stats Elevation 13 ft / 4 m (AMSL)
Location 26.196981° -80.170441°
Runways 2
Magnetic Variation 6.818° W

METAR

KFXE 270153Z 11015G23KT 10SM SCT017 BKN023 25/23 A2984 RMK AO2 RAB07E18 SLP107 P0000 T02500233

Decode

TAF

KFXE 270204Z 2702/2724 11012KT P6SM SHRA SCT018 BKN025 OVC080 TEMPO 2702/2703 6SM RA BKN015 FM270300 12015KT P6SM SHRA SCT020 BKN035 OVC080 FM271000 15018G28KT P6SM SHRA SCT015 BKN035 FM271400 18020G30KT P6SM VCTS BKN015CB OVC030

Decode

Departure Runways

ID Width Length Bearing (true) Bearing (mag) Surface Threshold Offset Overrun Length
08 100 ft / 30 m 5,992 ft / 1,826 m 83.75° 90.57° Asphalt 0 ft / 0 m 0 ft / 0 m
13 100 ft / 30 m 4,002 ft / 1,220 m 128.95° 135.77° Asphalt 0 ft / 0 m 0 ft / 0 m
26 100 ft / 30 m 5,992 ft / 1,826 m 263.76° 270.58° Asphalt 0 ft / 0 m 0 ft / 0 m
31 100 ft / 30 m 4,002 ft / 1,220 m 308.95° 315.77° Asphalt 0 ft / 0 m 0 ft / 0 m

KEYW

Details ICAO KEYW (EYW)
Name Key West Intl
Region United States
Timezone America/New_York (UTC-4.0)
Stats Elevation 2 ft / 1 m (AMSL)
Location 24.556124° -81.759546°
Runways 1
Magnetic Variation 5.594° W

METAR

KEYW 270217Z AUTO 13021G30KT 6SM RA BR FEW014 BKN035 OVC075 25/25 A2975 RMK AO2 PK WND 13031/0154 P0002 T02500250

Decode

TAF

KEYW 262337Z 2700/2724 13023G36KT P6SM -RA VCSH SCT020 BKN030 OVC060 TEMPO 2700/2703 2SM +SHRA BKN015 OVC030 FM270300 15025G34KT 3SM RA VCTS SCT010CB BKN030 OVC060 TEMPO 2703/2706 1SM +TSRA BKN010CB OVC025 FM270900 18030G39KT 5SM -RA SCT012 OVC025 FM271500 17020G27KT P6SM VCSH SCT015 BKN050

Decode

Destination Runways

ID Width Length Bearing (true) Bearing (mag) Surface Threshold Offset Overrun Length
09 100 ft / 30 m 4,794 ft / 1,461 m 89.38° 94.97° Asphalt 151 ft / 46 m 0 ft / 0 m
27 100 ft / 30 m 4,794 ft / 1,461 m 269.39° 274.98° Asphalt 151 ft / 46 m 0 ft / 0 m

Popular Alternatives